Вернуться в каталог

BEIYOU-3

АктивенНаукаSSO
NORAD 64053·PAYLOAD·🇨🇳 China
Это название спутника еще не подтверждено официальными источниками.

Запущен May 17, 2025 с Jiuquan Satellite Launch Center

Loading…

Ближайшие Пролёты (ближайшие 24 часа)

TLE

СвежийSource: Space-Track

Эпоха: Sep 14, 2026, 12:51 UTC

1 64053U 25103F   26257.53582269  .00002847  00000-0  13711-3 0  9998
2 64053  97.3729 326.9562 0002572 183.3876 176.7342 15.19540791 73611

Отслеживайте BEIYOU-3 в реальном времени с AllMySat

Download on the App Store